Location: Kumla
(59.1265°N, 15.1401°E)
Time: 21:50:54
(UTC+01:00)

Tiros 1 - Visible Passes

Search period start: 06 December 2023 00:00
Search period end: 16 December 2023 00:00
Orbit: 625 x 659 km, 48.4° (Epoch: 06 December)

Date Brightness Start Highest point End Pass type
(mag) Time Alt. Az. Time Alt. Az. Time Alt. Az.
06 Dec 9.6 04:24:34 13° SSE 04:25:00 13° SSE 04:27:14 10° ESE visible
06 Dec 9.2 06:02:17 10° SW 06:05:55 22° S 06:09:34 10° ESE visible
07 Dec 9.2 04:48:16 17° S 04:48:58 18° SSE 04:52:10 10° ESE visible
07 Dec 9.1 06:26:17 10° SW 06:30:01 23° S 06:33:45 10° SE visible
08 Dec 9.0 05:11:54 20° S 05:13:01 21° S 05:16:38 10° ESE visible
08 Dec 9.1 06:50:31 10° WSW 06:54:07 21° S 06:57:42 10° SE visible
09 Dec 9.7 03:57:54 14° SE 03:57:54 14° SE 03:59:10 10° ESE visible
09 Dec 8.9 05:35:29 19° SSW 05:37:06 23° S 05:40:50 10° SE visible
09 Dec 9.3 07:15:00 10° WSW 07:18:09 18° SSW 07:21:18 10° SSE visible
10 Dec 9.3 04:21:27 19° SE 04:21:27 19° SE 04:23:40 10° ESE visible
10 Dec 9.0 05:59:01 16° SW 06:01:11 22° S 06:04:49 10° SE visible
10 Dec 9.5 07:39:59 10° SW 07:42:06 13° SSW 07:44:14 10° S visible
11 Dec 9.0 04:44:57 22° SSE 04:44:57 22° SSE 04:47:55 10° SE visible
11 Dec 9.2 06:22:32 12° SW 06:25:14 18° SSW 06:28:30 10° SSE visible
12 Dec 8.9 05:08:28 22° S 05:08:28 22° S 05:11:57 10° SE visible
12 Dec 9.4 06:46:49 10° WSW 06:49:12 14° SSW 06:51:36 10° S visible
13 Dec 9.9 03:54:24 12° SE 03:54:24 12° SE 03:54:58 10° SE visible
13 Dec 9.0 05:31:58 19° SSW 05:32:19 19° SSW 05:35:40 10° SSE visible
14 Dec 9.6 04:17:55 15° SE 04:17:55 15° SE 04:19:01 10° SE visible
14 Dec 9.2 05:55:29 14° SW 05:56:18 15° SSW 05:58:54 10° S visible
15 Dec 9.5 04:41:28 15° SSE 04:41:28 15° SSE 04:42:48 10° SSE visible
